Regional Weather Roundup
Issued by NWS

Home | Current Version | Previous Version | Graphics & Text | Print | Product List | Glossary On
Versions: 1 2 3 4 5 6 7 8 9 10 11 12 13 14 15 16 17 18 19 20 21 22 23 24 25 26 27
000
ASUS45 KTFX 280810
RWRMT
MONTANA REGIONAL WEATHER ROUNDUP
NATIONAL WEATHER SERVICE GREAT FALLS MT
200 AM MDT THU JUL 28 2016

NOTE: "FAIR" INDICATES FEW OR NO CLOUDS BELOW 12000 FEET WITH NO
SIGNIFICANT WEATHER AND/OR OBSTRUCTIONS TO VISIBILITY.

MTZ001>007-043-280900-
WEST OF THE DIVIDE

CITY           SKY/WX    TMP DP  RH WIND       PRES   REMARKS
KALISPELL      CLEAR     64  54  69 N12       30.13R
MISSOULA       PTCLDY    68  49  50 CALM      30.13R
BUTTE          CLEAR     56  45  66 SE8       30.26S
MULLAN PASS    CLEAR     65  42  43 N3        30.28S
ANACONDA         N/A     57  46  67 CALM      30.24R
DEER LODGE       N/A     63  52  67 NW8       30.24F
EUREKA           N/A     57  54  88 CALM      30.16S
HAMILTON         N/A     61  48  63 CALM      30.14R
LIBBY            N/A     63  50  63 CALM      30.13S
PLAINS           N/A     63  58  83 CALM      30.12R
RONAN            N/A     61  52  72 MISG      30.17R
$$

MTZ008-052>055-280900-
SOUTHWEST MONTANA

CITY           SKY/WX    TMP DP  RH WIND       PRES   REMARKS
BOZEMAN        CLOUDY    64  53  67 NW9       30.17S
DILLON         CLEAR     58  49  72 SE3       30.21R
W YELLOWSTONE  CLOUDY    55  46  71 E6        30.33F
ENNIS          CLEAR     57  45  62 SE5       30.26S
THREE FORKS      N/A     63  39  41 CALM      30.16R
TWIN BRIDGES     N/A     63  47  55 N5        30.16S
$$

MTZ009-010-012-014-046-048-049-054-280900-
EAST SLOPES AND CENTRAL MONTANA

CITY           SKY/WX    TMP DP  RH WIND       PRES   REMARKS
CUT BANK       MOCLDY    57  54  89 W3        30.19F
GREAT FALLS    CLOUDY    59  50  72 SW3       30.22S
MALMSTROM AFB  LGT RAIN  63  54  72 W7        30.22S
HELENA         MOCLDY    66  52  60 W9        30.20S
CHOTEAU          N/A     61  55  82 SW8G14    30.23S
$$

MTZ011-013-016-021-045-047-050-051-280900-
NORTH CENTRAL MONTANA

CITY           SKY/WX    TMP DP  RH WIND       PRES   REMARKS
HAVRE          CLOUDY    59  57  93 NE5       30.16F
N BAR RANCH      N/A     54  52  94 CALM      30.27S
CHINOOK          N/A     57  57 100 CALM      30.17S
$$

MTZ017>020-022>027-061-062-280900-
NORTHEAST MONTANA

CITY           SKY/WX    TMP DP  RH WIND       PRES   REMARKS
GLASGOW        CLOUDY    60  57  89 NE7       30.16S
JORDAN           N/A     61  58  90 N5        30.17S
SIDNEY         PTCLDY    60  59  96 N6        30.14F
WOLF POINT     PTCLDY    61  58  90 NE5       30.16S
PLENTYWOOD       N/A     59  57  94 E3        30.18S
SCOBEY           N/A     53  42  66 CALM      30.17S
$$

MTZ028>42-056>058-280900-
SOUTHCENTRAL AND SOUTHEAST MONTANA

CITY           SKY/WX    TMP DP  RH WIND       PRES   REMARKS
BAKER          LGT RAIN  60  59  96 N10       30.16F
BILLINGS       CLOUDY    66  58  75 CALM      30.21R
LIVINGSTON     CLOUDY    61  56  83 NE12      30.25S
MILES CITY     PTCLDY    62  57  83 NE12      30.13S
EKALAKA          N/A     59  55  86 SE7       30.11F
FORSYTH          N/A     63  63 100 CALM      30.14S
LAUREL           N/A     64  56  75 CALM      30.19R
ROUNDUP          N/A     60  54  80 MISG      30.10F
$$

REGIONAL REPORTS...DAKOTAS

CITY           SKY/WX    TMP DP  RH WIND       PRES   REMARKS
WILLISTON      CLOUDY    65  60  84 CALM      30.16S
MINOT          CLOUDY    63  57  81 NE3       30.15S
DICKINSON      CLEAR     57  56  96 NE5       30.12S
BEACH          CLOUDY    61  61 100 SW8       30.18S
CROSBY           N/A     54  54 100 CALM      30.20S
WATFORD CITY     N/A    N/A N/A N/A MISG        N/A
BISMARCK       LGT RAIN  64  61  90 NE3       30.13F
GRAND FORKS    CLOUDY    62  57  83 N10       30.09S
FARGO          CLOUDY    63  59  87 N3        30.06S
BUFFALO SD       N/A     61  59  93 W5        30.07S
RAPID CITY     PTCLDY    61  57  87 SW5       30.12F
$$

REGIONAL REPORTS...WYOMING/IDAHO/WASHINGTON

CITY           SKY/WX    TMP DP  RH WIND       PRES   REMARKS
GILLETTE       CLOUDY    62  61  96 S12       30.18R
SHERIDAN       CLOUDY    64  55  72 NW3       30.17S
BUFFALO WY     CLOUDY    61  53  75 W7        30.22F
CODY           CLOUDY    68  48  49 W9        30.28R THUNDER
YELLOWSTONE LA   N/A     54  45  71 VRB7G17   30.44S
IDAHO FALLS    CLEAR     63  43  48 N5        30.12R
SALMON         CLEAR     64  43  45 CALM      30.10S
BOISE          CLEAR     73  47  39 S5        29.99R
SPOKANE        CLEAR     71  46  40 CALM      30.05S
$$

REGIONAL REPORTS...ALBERTA

CITY           SKY/WX    TMP DP  RH WIND       PRES   REMARKS
EDMONTON       PTCLDY    61  55  82 SW5       30.13S
CALGARY        PTCLDY    59  52  77 NW5       30.21S
LETHBRIDGE     CLOUDY    64  57  77 CALM      30.17F THUNDER
MEDICINE HAT   CLEAR     63  61  94 VRB2      30.15F
WATERTON GATE    N/A     48  46  93 SW5         N/A
MILK RIVER       N/A     57  55  94 W3          N/A
ONEFOUR          N/A     57  55  94 E6          N/A
$$

REGIONAL REPORTS...SASKATCHEWAN

CITY           SKY/WX    TMP DP  RH WIND       PRES   REMARKS
SWIFT CURRENT  CLEAR     54  50  87 SE7       30.18F
REGINA         CLEAR     55  52  88 SE7       30.18F
SASKATOON      CLEAR     59  54  82 SW5       30.17S
CYPRESS HILLS    N/A     55  52  88 SE2         N/A
VAL MARIE        N/A     50  48  93 E2          N/A
ROCKGLEN         N/A     57  52  82 CALM        N/A
ASSINIBOIA       N/A     59  59 100 S3          N/A
$$




USA.gov is the U.S. government's official web portal to all federal, state and local government web resources and services.